Iowa Falls, IA

2:04 PM CDT on July 26, 2017 (GMT -0500)
Iowa Falls Municipal

Weather History for KIFA - July, 2012

Change the Weather History Date:

Thursday, July 5, 2012

  Actual Average Record
Temperature  
Mean Temperature 83 °F -  
Max Temperature 92 °F 85 °F 100 °F (1977)
Min Temperature 74 °F 60 °F 45 °F (1960)
Cooling Degree Days 18    
Growing Degree Days 33 (Base 50)    
Moisture  
Dew Point 71 °F    
Average Humidity 65    
Maximum Humidity 87    
Minimum Humidity 47    
Precipitation  
Precipitation 0.15 in - - ()
Sea Level Pressure  
Sea Level Pressure 29.94 in    
Wind  
Wind Speed 6 mph (SSW)    
Max Wind Speed 18 mph    
Max Gust Speed 29 mph    
Visibility 10 miles    
Events Rain    
Averages and records for this station are not official NWS values.
T = Trace of Precipitation, MM = Missing Value Source: NWS Daily Summary

Daily Weather History Graph

Daily Weather History Graph

Search for Another Location

Airport or City:

Trip Planner

Search our weather history database for the weather conditions in past years. The results will help you decide how hot, cold, wet, or windy it might be!

Date:

Astronomy

Jul. 05, 2012 Rise Set
Actual Time 5:42 AM CDT 8:53 PM CDT
Civil Twilight 5:07 AM CDT 9:27 PM CDT
Nautical Twilight 4:23 AM CDT 10:11 PM CDT
Astronomical Twilight 3:30 AM CDT 11:04 PM CDT
Moon 10:05 PM CDT (7/5) 7:58 AM CDT (7/5)
Length of Visible Light 16h 19m
Length of Day
15h 10m
Waning Gibbous, 95% of the Moon is Illuminated
Jul 5
Waning Gibbous
Jul 10
Last Quarter
Jul 18
New
Jul 26
First Quarter
Aug 1
Full

Hourly Weather History & Observations

Time (CDT) Temp. Heat Index Dew Point Humidity Pressure Visibility Wind Dir Wind Speed Gust Speed Precip Events Conditions
12:15 AM 76.1 °F - 71.2 °F 85% 29.89 in 10.0 mi SSE 5.8 mph - N/A   Unknown
12:35 AM 75.9 °F - 70.7 °F 84% 29.89 in 10.0 mi SSE 6.9 mph - N/A   Unknown
12:55 AM 76.5 °F - 70.2 °F 81% 29.89 in 10.0 mi SSE 6.9 mph - N/A   Unknown
1:35 AM 77.5 °F - 68.0 °F 72% 29.88 in 10.0 mi SSE 5.8 mph - N/A   Unknown
1:55 AM 77.9 °F - 67.3 °F 70% 29.89 in 10.0 mi SSE 8.1 mph - N/A   Unknown
2:15 AM 77.5 °F - 67.1 °F 70% 29.89 in 10.0 mi South 6.9 mph - N/A   Unknown
2:35 AM 76.6 °F - 67.1 °F 72% 29.90 in 10.0 mi South 3.5 mph - N/A   Unknown
2:55 AM 75.2 °F - 67.1 °F 76% 29.90 in 10.0 mi SSE 5.8 mph - N/A   Unknown
3:15 AM 75.2 °F - 66.6 °F 74% 29.91 in 10.0 mi South 5.8 mph - N/A   Unknown
3:35 AM 74.3 °F - 66.6 °F 77% 29.92 in 10.0 mi Calm Calm - N/A   Unknown
3:55 AM 75.0 °F - 66.0 °F 73% 29.92 in 10.0 mi WSW 6.9 mph - N/A   Unknown
4:15 AM 76.6 °F - 66.7 °F 71% 29.91 in 3.0 mi SE 18.4 mph 28.8 mph 0.07 in Rain Heavy Rain
4:35 AM 79.3 °F - 66.0 °F 64% 29.92 in 10.0 mi South 4.6 mph - 0.15 in   Unknown
4:55 AM 77.9 °F - 67.5 °F 70% 29.92 in 10.0 mi SSE 8.1 mph - 0.15 in   Unknown
5:15 AM 76.6 °F - 67.6 °F 74% 29.92 in 10.0 mi SSE 6.9 mph - N/A   Unknown
5:35 AM 77.2 °F - 66.6 °F 70% 29.92 in 10.0 mi SSW 5.8 mph - N/A   Unknown
5:55 AM 78.8 °F - 66.2 °F 65% 29.92 in 10.0 mi South 10.4 mph - N/A   Unknown
6:15 AM 79.9 °F - 65.3 °F 61% 29.93 in 10.0 mi SSW 9.2 mph - N/A   Unknown
6:35 AM 78.4 °F - 66.4 °F 66% 29.93 in 10.0 mi SSW 9.2 mph - N/A   Unknown
7:15 AM 79.9 °F - 65.7 °F 62% 29.94 in 10.0 mi SSW 12.7 mph 19.6 mph N/A   Unknown
7:35 AM 79.9 °F - 66.0 °F 62% 29.95 in 10.0 mi SW 11.5 mph - N/A   Unknown
7:55 AM 79.9 °F - 66.4 °F 63% 29.95 in 10.0 mi SSW 8.1 mph - N/A   Unknown
8:15 AM 81.0 °F 83.0 °F 65.7 °F 60% 29.96 in 10.0 mi WSW 10.4 mph - N/A   Unknown
8:35 AM 81.9 °F 83.7 °F 65.1 °F 57% 29.96 in 10.0 mi SW 12.7 mph - N/A   Unknown
8:55 AM 81.9 °F 83.9 °F 65.8 °F 58% 29.95 in 10.0 mi WSW 9.2 mph - N/A   Unknown
9:35 AM 82.8 °F 85.5 °F 67.5 °F 60% 29.94 in 10.0 mi WSW 8.1 mph - N/A   Unknown
9:55 AM 84.6 °F 87.6 °F 68.0 °F 57% 29.94 in 10.0 mi West 9.2 mph - N/A   Unknown
10:15 AM 86.4 °F 90.4 °F 69.1 °F 56% 29.95 in 10.0 mi WSW 9.2 mph - N/A   Unknown
10:35 AM 86.7 °F 89.9 °F 67.8 °F 53% 29.95 in 10.0 mi WSW 6.9 mph 10.4 mph N/A   Unknown
10:55 AM 85.5 °F 89.1 °F 68.7 °F 57% 29.96 in 10.0 mi WSW 5.8 mph - N/A   Unknown
11:15 AM 86.2 °F 90.4 °F 69.1 °F 57% 29.96 in 10.0 mi SW 6.9 mph - N/A   Unknown
11:35 AM 88.5 °F 94.0 °F 70.7 °F 55% 29.96 in 10.0 mi SW 6.9 mph - N/A   Unknown
11:55 AM 89.2 °F 94.9 °F 70.5 °F 54% 29.96 in 10.0 mi WSW 8.1 mph - N/A   Unknown
12:35 PM 91.0 °F 96.6 °F 70.0 °F 50% 29.97 in 10.0 mi WSW 5.8 mph - N/A   Unknown
12:55 PM 91.4 °F 96.8 °F 69.6 °F 49% 29.97 in 10.0 mi West 9.2 mph - N/A   Unknown
1:35 PM 91.9 °F 97.9 °F 70.2 °F 49% 29.97 in 10.0 mi West 5.8 mph - N/A   Unknown
1:55 PM 91.2 °F 97.5 °F 70.7 °F 51% 29.97 in 10.0 mi West 4.6 mph - N/A   Unknown
2:15 PM 92.3 °F 99.2 °F 71.4 °F 50% 29.96 in 10.0 mi WSW 4.6 mph - N/A   Unknown
2:35 PM 92.7 °F 99.4 °F 71.2 °F 49% 29.96 in 10.0 mi West 8.1 mph - N/A   Unknown
2:55 PM 92.7 °F 98.3 °F 69.4 °F 47% 29.96 in 10.0 mi West 5.8 mph - N/A   Unknown
3:15 PM 91.8 °F 97.0 °F 69.6 °F 48% 29.96 in 10.0 mi West 4.6 mph - N/A   Unknown
3:35 PM 92.5 °F 99.0 °F 70.7 °F 49% 29.96 in 10.0 mi Calm Calm - N/A   Unknown
4:15 PM 92.7 °F 99.4 °F 70.9 °F 49% 29.96 in 10.0 mi Calm Calm - N/A   Unknown
4:35 PM 92.7 °F 101.1 °F 72.7 °F 52% 29.95 in 10.0 mi Calm Calm - N/A   Unknown
4:55 PM 91.9 °F 102.6 °F 74.5 °F 57% 29.96 in 10.0 mi South 5.8 mph - N/A   Unknown
5:15 PM 91.4 °F 102.5 °F 75.0 °F 59% 29.96 in 10.0 mi SSW 3.5 mph - N/A   Unknown
5:35 PM 91.6 °F 101.7 °F 74.3 °F 57% 29.95 in 10.0 mi Calm Calm - N/A   Unknown
5:55 PM 91.9 °F 102.6 °F 74.5 °F 57% 29.95 in 10.0 mi Calm Calm - N/A   Unknown
6:15 PM 91.6 °F 101.7 °F 74.3 °F 57% 29.95 in 10.0 mi Calm Calm - N/A   Unknown
6:35 PM 90.9 °F 101.2 °F 74.7 °F 59% 29.95 in 10.0 mi Calm Calm - N/A   Unknown
6:55 PM 90.5 °F 102.1 °F 75.9 °F 62% 29.95 in 10.0 mi Calm Calm - N/A   Unknown
7:15 PM 89.8 °F 102.7 °F 77.0 °F 66% 29.95 in 10.0 mi Calm Calm - N/A   Unknown
7:35 PM 89.1 °F 101.9 °F 77.2 °F 68% 29.95 in 10.0 mi Calm Calm - N/A   Unknown
7:55 PM 88.2 °F 99.5 °F 76.5 °F 68% 29.95 in 10.0 mi Calm Calm - N/A   Unknown
8:15 PM 86.5 °F 98.3 °F 77.5 °F 74% 29.95 in 10.0 mi Calm Calm - N/A   Unknown
8:35 PM 85.3 °F 96.7 °F 77.9 °F 78% 29.96 in 10.0 mi Calm Calm - N/A   Unknown
8:55 PM 83.8 °F 93.5 °F 77.0 °F 80% 29.96 in 10.0 mi Calm Calm - N/A   Unknown
9:15 PM 82.9 °F 91.5 °F 76.5 °F 81% 29.97 in 10.0 mi Calm Calm - N/A   Unknown
9:35 PM 82.6 °F 89.7 °F 75.0 °F 78% 29.97 in 10.0 mi Calm Calm - N/A   Unknown
9:55 PM 80.6 °F 86.2 °F 75.2 °F 84% 29.97 in 10.0 mi Calm Calm - N/A   Unknown
10:35 PM 79.7 °F - 75.2 °F 86% 29.97 in 10.0 mi Calm Calm - N/A   Unknown
10:55 PM 78.6 °F - 74.3 °F 87% 29.97 in 10.0 mi Calm Calm - N/A   Unknown
11:15 PM 78.8 °F - 73.4 °F 83% 29.97 in 10.0 mi SSE 4.6 mph - N/A   Unknown
11:35 PM 78.3 °F - 72.5 °F 82% 29.97 in 10.0 mi SSE 3.5 mph - N/A   Unknown
11:55 PM 78.8 °F - 72.0 °F 79% 29.97 in 10.0 mi SSE 4.6 mph - N/A   Unknown